Weather in Trikraty

Ukraine / Mykolaiv District     47°42′59″N   31°24′16″E
В апреле 2022 года жителям России запретили посещать сайт meteo.paraplan.net по решению Генеральной прокуратуры. Аудитория сайта уменьшилась в 10 раз. Владельцы сайта не видят смысла в поддержке погодного сервера в таких условиях. Сайт будет закрыт в октябре.
temp.,
°C
wind,
m/s
gust,
m/s
humid.,
%
clouds,
%
prec.,
mm/h
press.,
hPa
HPBL,
m
3 october, mon
mon300:00+11wnw8137349 0.0 1006841
03:00+11w714695 0.0 1007734
06:00+11w81475100 0.0 1007571
09:00+13w81263100 0.0 1008908
12:00+14w8115796 0.0 10091276
15:00+15wsw81151100 0.3 10091994
18:00+14w610525 0.0 1009519
21:00+11w4962100 0.0 1010379
4 october, tue
tue400:00+11wsw510748 0.0 1011689
03:00+10wsw5117529 0.0 1011505
06:00+10w51076100 0.0 1011534
09:00+11wnw6767100 0.0 1013712
12:00+13w6756100 0.0 10151340
15:00+15wnw7943100 0.0 10151926
18:00+13wnw694898 0.0 1017523
21:00+11w4959100 0.0 1019254
5 october, wed
wed500:00+10wsw496658 0.0 1020326
03:00+11w41068100 0.0 1021441
06:00+11w5972100 0.0 1022368
09:00+12wnw68725 0.0 1023637
12:00+16wnw57485 0.0 10241576
15:00+17wnw674048 0.0 10241762
18:00+15nw474726 0.0 1025151
21:00+12n2259100 0.0 102618
6 october, thu
thu600:00+11wsw116199 0.0 102710
03:00+11w1164100 0.0 102710
06:00+11sw1165100 0.0 102612
09:00+13wsw2360100 0.0 1027146
12:00+17wsw234273 0.0 1027870
15:00+20wsw343397 0.0 10251364
18:00+18wsw2240100 0.0 102516
21:00+15wsw334589 0.0 102623
7 october, fri
fri700:00+13w2252100 0.0 102719
03:00+12nnw367099 0.0 102693
06:00+11n368982 0.0 1027100
09:00+14nne477895 0.0 1027314
12:00+19nne565863 0.0 10271009
15:00+20nne553913 0.0 10261451
18:00+17nne46445 0.0 1026115
21:00+13ne48555 0.0 1026141